Hillsdale, MI

12:23 PM EDT on August 31, 2016 (GMT -0400)
Hillsdale Municipal

Weather History for KJYM - September, 2014

Change the Weather History Date:

Wednesday, September 3, 2014

  Actual Average Record
Temperature  
Mean Temperature 69 °F -  
Max Temperature 83 °F 78 °F 93 °F (1973)
Min Temperature 55 °F 54 °F 33 °F (2001)
Cooling Degree Days 4    
Growing Degree Days 19 (Base 50)    
Moisture  
Dew Point 59 °F    
Average Humidity 75    
Maximum Humidity 100    
Minimum Humidity 36    
Precipitation  
Precipitation 0.00 in - - ()
Sea Level Pressure  
Sea Level Pressure 30.04 in    
Wind  
Wind Speed 1 mph (WSW)    
Max Wind Speed 8 mph    
Max Gust Speed -    
Visibility 9 miles    
Events Fog    
Averages and records for this station are not official NWS values.
T = Trace of Precipitation, MM = Missing Value Source: NWS Daily Summary

Daily Weather History Graph

Daily Weather History Graph

Search for Another Location

Airport or City:

Trip Planner

Search our weather history database for the weather conditions in past years. The results will help you decide how hot, cold, wet, or windy it might be!

Date:

Astronomy

Sep. 03, 2014 Rise Set
Actual Time 7:06 AM EDT 8:08 PM EDT
Civil Twilight 6:37 AM EDT 8:36 PM EDT
Nautical Twilight 6:03 AM EDT 9:10 PM EDT
Astronomical Twilight 5:27 AM EDT 9:46 PM EDT
Moon 3:52 PM EDT (9/3) 12:56 AM EDT (9/3)
Length of Visible Light 13h 59m
Length of Day
13h 02m
Waxing Gibbous, 63% of the Moon is Illuminated
Sep 3
Waxing Gibbous
Sep 8
Full
Sep 15
Last Quarter
Sep 24
New
Oct 1
First Quarter

Hourly Weather History & Observations

Time (EDT) Temp. Heat Index Dew Point Humidity Pressure Visibility Wind Dir Wind Speed Gust Speed Precip Events Conditions
12:15 AM 59.7 °F - 59.7 °F 100% 29.99 in 10.0 mi Calm Calm - N/A   Clear
12:35 AM 58.6 °F - 58.6 °F 100% 30.00 in 7.0 mi Calm Calm - N/A   Scattered Clouds
12:54 AM 59.4 °F - 59.4 °F 100% 30.00 in 10.0 mi Calm Calm - N/A   Scattered Clouds
1:15 AM 58.6 °F - 58.6 °F 100% 30.00 in 7.0 mi Calm Calm - N/A   Scattered Clouds
1:35 AM 58.8 °F - 58.8 °F 100% 30.00 in 7.0 mi Calm Calm - N/A   Clear
1:54 AM 58.3 °F - 58.3 °F 100% 30.00 in 2.5 mi Calm Calm - N/A   Clear
2:15 AM 58.1 °F - 58.1 °F 100% 30.00 in 0.5 mi Calm Calm - N/A Fog Fog
2:35 AM 57.6 °F - 57.6 °F 100% 30.00 in 7.0 mi Calm Calm - N/A   Clear
2:54 AM 57.4 °F - 57.2 °F 99% 30.00 in 10.0 mi Calm Calm - N/A   Clear
3:15 AM 57.7 °F - 57.7 °F 100% 30.00 in 7.0 mi Calm Calm - N/A   Clear
3:35 AM 56.8 °F - 56.8 °F 100% 30.00 in 7.0 mi Calm Calm - N/A   Clear
3:55 AM 56.7 °F - 56.7 °F 100% 30.00 in 7.0 mi Calm Calm - N/A   Clear
4:14 AM 56.8 °F - 56.8 °F 100% 30.00 in 10.0 mi Calm Calm - N/A   Clear
4:35 AM 56.1 °F - 56.1 °F 100% 30.00 in 5.0 mi Calm Calm - N/A   Clear
4:54 AM 55.9 °F - 55.9 °F 100% 30.01 in 7.0 mi Calm Calm - N/A   Clear
5:15 AM 56.5 °F - 56.5 °F 100% 30.02 in 7.0 mi Calm Calm - N/A   Clear
5:34 AM 56.7 °F - 56.7 °F 100% 30.02 in 10.0 mi Calm Calm - N/A   Clear
5:55 AM 56.8 °F - 56.7 °F 99% 30.02 in 10.0 mi Calm Calm - N/A   Clear
6:15 AM 56.5 °F - 56.5 °F 100% 30.03 in 7.0 mi Calm Calm - N/A   Scattered Clouds
6:35 AM 57.0 °F - 57.0 °F 100% 30.03 in 10.0 mi Calm Calm - N/A   Scattered Clouds
6:55 AM 56.8 °F - 56.8 °F 100% 30.03 in 10.0 mi Calm Calm - N/A   Clear
7:14 AM 56.7 °F - 56.7 °F 100% 30.04 in 7.0 mi Calm Calm - N/A   Clear
7:35 AM 57.4 °F - 57.4 °F 100% 30.04 in 7.0 mi Calm Calm - N/A   Clear
7:54 AM 58.5 °F - 58.5 °F 100% 30.04 in 10.0 mi Calm Calm - N/A   Clear
8:14 AM 61.2 °F - 61.2 °F 100% 30.05 in 10.0 mi Calm Calm - N/A   Clear
8:35 AM 63.9 °F - 63.9 °F 100% 30.05 in 10.0 mi Calm Calm - N/A   Clear
8:55 AM 66.7 °F - 66.6 °F 99% 30.06 in 10.0 mi Calm Calm - N/A   Clear
9:14 AM 69.1 °F - 66.0 °F 90% 30.06 in 10.0 mi Calm Calm - N/A   Clear
9:35 AM 70.7 °F - 66.6 °F 87% 30.06 in 10.0 mi Calm Calm - N/A   Clear
9:54 AM 71.8 °F - 66.9 °F 85% 30.07 in 10.0 mi Calm Calm - N/A   Clear
10:15 AM 73.8 °F - 66.6 °F 78% 30.07 in 10.0 mi Calm Calm - N/A   Clear
10:35 AM 75.2 °F - 65.3 °F 71% 30.07 in 10.0 mi Calm Calm - N/A   Clear
10:54 AM 76.1 °F - 63.1 °F 64% 30.07 in 10.0 mi Calm Calm - N/A   Clear
11:15 AM 77.2 °F - 61.9 °F 59% 30.07 in 10.0 mi Calm Calm - N/A   Clear
11:34 AM 78.1 °F - 60.6 °F 55% 30.07 in 10.0 mi SSW 3.5 mph - N/A   Clear
11:55 AM 78.3 °F - 60.3 °F 54% 30.07 in 10.0 mi SW 4.6 mph - N/A   Scattered Clouds
12:15 PM 79.3 °F - 57.7 °F 47% 30.06 in 10.0 mi West 4.6 mph - N/A   Scattered Clouds
12:34 PM 79.7 °F - 57.6 °F 47% 30.06 in 10.0 mi SW 4.6 mph - N/A   Scattered Clouds
12:55 PM 80.6 °F 80.8 °F 57.7 °F 45% 30.06 in 10.0 mi WSW 8.1 mph - N/A   Scattered Clouds
1:15 PM 79.7 °F - 56.8 °F 45% 30.06 in 10.0 mi WSW 5.8 mph - N/A   Clear
1:34 PM 81.0 °F 80.8 °F 56.1 °F 42% 30.06 in 10.0 mi SW 4.6 mph - N/A   Scattered Clouds
1:55 PM 81.5 °F 81.3 °F 56.1 °F 42% 30.06 in 10.0 mi WNW 6.9 mph - N/A   Scattered Clouds
2:15 PM 81.0 °F 80.9 °F 56.7 °F 43% 30.06 in 7.0 mi West 5.8 mph - N/A   Scattered Clouds
2:35 PM 81.9 °F 81.4 °F 55.8 °F 41% 30.06 in 10.0 mi WSW 8.1 mph - N/A   Clear
2:54 PM 81.9 °F 81.3 °F 55.2 °F 40% 30.06 in 10.0 mi WNW 3.5 mph - N/A   Clear
3:15 PM 82.4 °F 81.8 °F 56.1 °F 40% 30.06 in 10.0 mi West 6.9 mph - N/A   Scattered Clouds
3:34 PM 82.8 °F 82.1 °F 55.9 °F 40% 30.06 in 10.0 mi West 6.9 mph - N/A   Clear
3:55 PM 83.1 °F 82.3 °F 55.6 °F 39% 30.05 in 10.0 mi West 6.9 mph - N/A   Clear
4:14 PM 82.8 °F 82.0 °F 55.8 °F 39% 30.04 in 10.0 mi WSW 3.5 mph - N/A   Clear
4:35 PM 83.3 °F 82.1 °F 53.4 °F 36% 30.04 in 10.0 mi SW 4.6 mph - N/A   Clear
4:54 PM 82.4 °F 81.6 °F 54.7 °F 38% 30.03 in 10.0 mi SW 4.6 mph - N/A   Clear
5:15 PM 82.8 °F 82.0 °F 55.8 °F 39% 30.03 in 10.0 mi West 6.9 mph - N/A   Clear
5:35 PM 82.8 °F 82.1 °F 56.3 °F 40% 30.04 in 10.0 mi West 6.9 mph - N/A   Clear
5:54 PM 81.5 °F 81.1 °F 55.9 °F 41% 30.04 in 10.0 mi West 5.8 mph - N/A   Scattered Clouds
6:15 PM 82.0 °F 81.5 °F 55.6 °F 40% 30.03 in 10.0 mi WSW 5.8 mph - N/A   Scattered Clouds
6:35 PM 81.3 °F 81.1 °F 55.9 °F 42% 30.03 in 10.0 mi West 3.5 mph - N/A   Clear
6:54 PM 81.0 °F 80.8 °F 55.9 °F 42% 30.04 in 10.0 mi West 6.9 mph - N/A   Clear
7:15 PM 79.5 °F - 55.9 °F 44% 30.04 in 10.0 mi West 3.5 mph - N/A   Clear
7:34 PM 77.9 °F - 57.0 °F 48% 30.04 in 10.0 mi Calm Calm - N/A   Clear
7:55 PM 73.8 °F - 60.3 °F 63% 30.04 in 10.0 mi Calm Calm - N/A   Clear
8:14 PM 69.6 °F - 62.8 °F 79% 30.04 in 10.0 mi Calm Calm - N/A   Clear
8:35 PM 67.5 °F - 64.0 °F 89% 30.05 in 10.0 mi Calm Calm - N/A   Clear
8:55 PM 66.6 °F - 63.1 °F 89% 30.05 in 10.0 mi Calm Calm - N/A   Clear
9:14 PM 65.1 °F - 62.6 °F 92% 30.06 in 10.0 mi Calm Calm - N/A   Clear
9:35 PM 64.6 °F - 62.2 °F 92% 30.06 in 10.0 mi Calm Calm - N/A   Clear
9:55 PM 63.5 °F - 61.9 °F 94% 30.06 in 10.0 mi Calm Calm - N/A   Clear
10:14 PM 64.6 °F - 62.1 °F 92% 30.07 in 10.0 mi Calm Calm - N/A   Clear
10:35 PM 64.8 °F - 61.7 °F 90% 30.07 in 10.0 mi Calm Calm - N/A   Clear
10:54 PM 64.8 °F - 61.3 °F 89% 30.07 in 10.0 mi Calm Calm - N/A   Clear
11:14 PM 62.8 °F - 61.5 °F 96% 30.07 in 10.0 mi Calm Calm - N/A   Clear
11:54 PM 63.3 °F - 61.3 °F 93% 30.07 in 10.0 mi South 3.5 mph - N/A   Scattered Clouds